sat.trackr.live / text

‹ back to catalog

STARLINK-31066

NORAD 58676 · 2023-211K

PAYLOAD ACTIVE UNKNOWN

§ Identity

Operator
Country
US
Launch date
2023-12-29
Launch site
AFETR
Launch vehicle
Mass (kg)
RCS (m²)

Purposes: comms

External: N2YO · Heavens-Above · Gunter

§ Orbital elements

Epoch: 2026-09-20T13:25:33.431808Z

Period
94.27 min
Inclination
43.0014°
Eccentricity
0.0001075
Mean motion
15.27576686 rev/d
Perigee alt
482.3 km
Apogee alt
483.8 km
Semi-major
6,861.2 km
B*
-9.8425e-6
RAAN
210.5375°
Arg perigee
264.2622°
Mean anomaly
95.8107°
Rev number
15,183

§ Raw data

STARLINK-310661 58676U 23211K   26263.55941472 -.00000533  00000+0 -98425-5 0  99922 58676  43.0014 210.5375 0001075 264.2622  95.8107 15.27576686151837

JSON: /api/v1/satellites/58676 · /tle

For live sub-satellite position, see the globe view (requires WebGL).

§ Visibility from observer

Set your observer location to see the next 7 days of passes ≥ 10°. The values pass through the URL so the page stays shareable.

No JS? Fill the form by hand. The geolocation button needs JavaScript.